Location: Bush Observatory
(40.2653°N, 94.3194°W)
Time: 07:17:21
(UTC-06:00)

Daily predictions for brighter satellites

Satellite Brightness Start Highest point End
(mag) Time Altitude Azimuth Time Altitude Azimuth Time Altitude Azimuth
Cosmos 2333 Rocket 2.2 17:43:21 10° SSW 17:48:58 74° ESE 17:54:37 10° NNE
Cosmos 1743 Rocket 3.7 17:44:45 10° S 17:49:12 87° W 17:53:43 10° N
IDEFIX/ARIANE 42P 2.8 17:44:21 10° S 17:49:33 82° WSW 17:54:50 10° NNW
Cosmos 2219 Rocket 2.3 17:44:34 10° SSW 17:50:13 85° WNW 17:55:53 10° NNE
Cosmos 1328 Rocket 3.7 17:46:47 10° N 17:51:16 82° W 17:55:42 10° S
Milstar 3 4.5 17:47:19 10° WSW 17:53:22 28° SSW 17:59:00 10° SE
Cosmos 1626 4.0 17:52:11 10° ESE 17:53:53 13° E 17:55:34 10° ENE
Meteor 2-2 Rocket 4.4 17:52:13 10° N 17:57:53 85° W 18:03:32 10° S
Cosmos 1151 Rocket 3.1 17:54:06 10° N 17:58:20 57° E 18:02:33 10° SSE
Aureole 2 Rocket 3.2 17:55:41 10° S 17:59:07 38° ESE 18:02:51 10° NE
SJ-6B 4.4 17:56:46 10° ESE 17:59:18 16° ENE 18:01:51 10° NNE
Cosmos 371 Rocket 3.5 17:56:27 10° SSW 18:01:15 75° WNW 18:06:04 10° NNE
Cosmos 2278 Rocket 2.2 17:56:09 10° NNW 18:01:50 66° ENE 18:07:27 10° SSE
Cosmos 1515 Rocket 3.7 17:57:23 10° N 18:01:53 85° W 18:06:19 10° S
Cosmos 1703 4.5 17:59:04 10° SE 18:02:05 22° E 18:05:07 10° NE
Cosmos 1674 4.5 18:00:45 10° SW 18:04:15 34° WNW 18:07:49 10° N
SMAP 3.6 18:00:40 10° S 18:05:16 64° W 18:09:55 10° NNW
Cosmos 1455 3.9 18:03:48 10° NE 18:05:52 14° ENE 18:07:55 10° ESE
Cosmos 1805 Rocket 4.4 18:04:13 10° SSE 18:08:04 29° E 18:11:56 10° NNE
SKYMED 2 3.7 18:04:27 10° NNE 18:08:43 52° E 18:12:57 10° S
Cosmos 1726 2.1 18:05:57 10° N 18:09:44 76° E 18:13:30 10° SSE
Lacrosse 4 Rocket 3.3 18:10:59 10° NNE 18:11:57 11° NE 18:12:09 11° NE
Cosmos 372 Rocket 3.9 18:07:55 10° NNW 18:13:00 65° ENE 18:18:03 10° SSE
Cosmos 1500 Rocket 4.1 18:10:48 10° SSW 18:15:04 62° W 18:19:24 10° N
Cosmos 540 Rocket 3.6 18:14:03 10° SSW 18:19:13 82° WNW 18:24:25 10° NNE
FREGAT/IRIS 4.1 18:17:04 10° ESE 18:19:14 18° ENE 18:21:24 10° NNE
Meteor 1-27 4.3 18:13:30 10° N 18:19:18 65° ENE 18:25:05 10° SSE
Sich 1 3.9 18:21:37 10° SSE 18:25:26 29° E 18:29:17 10° NNE
Cosmos 2237 Rocket 2.4 18:19:51 10° SSW 18:25:27 73° WNW 18:31:07 10° NNE
Abrixas 2.7 18:22:37 10° WSW 18:25:30 58° NNW 18:27:16 21° NE
Cosmos 1300 3.1 18:21:47 10° NNW 18:25:37 68° W 18:29:24 10° S
Cosmos 1340 Rocket 2.7 18:22:15 10° S 18:26:08 63° E 18:30:01 10° NNE
SL-14 R/B 3.6 18:23:19 10° SSW 18:27:13 69° W 18:31:12 10° N
USA 215 3.5 18:22:10 10° ESE 18:28:25 49° NNE 18:34:40 10° NW
NOSS 0 Rocket 4.5 18:23:37 10° SW 18:29:45 61° WNW 18:35:55 10° NNE
Cosmos 1484 Rocket 3.2 18:26:22 10° S 18:30:15 68° WSW 18:34:15 10° NNW
Cosmos 2058 2.8 18:26:33 10° S 18:30:38 89° W 18:34:46 10° N
Cosmos 1461 3.0 18:26:39 10° SSW 18:30:45 54° ESE 18:33:36 18° NE
SL-16 R/B 2.3 18:26:55 10° S 18:32:24 55° ESE 18:37:55 10° NNE
Cosmos 1633 Rocket 3.8 18:29:03 10° SSE 18:32:54 30° E 18:36:08 13° NNE
Cosmos 304 Rocket 3.7 18:35:08 10° SSW 18:39:55 78° ESE 18:44:45 10° NNE
BREEZE-M DEB (TANK) 1.9 18:40:51 10° WSW 18:43:14 72° NNW 18:44:00 38° NE
Cosmos 2297 3.6 18:38:49 10° NNW 18:44:31 69° ENE 18:50:13 10° SSE
Lacrosse 5 4.1 18:46:17 10° NNW 18:48:01 12° N 18:49:45 10° NNE
OTV 4 3.3 18:46:34 10° WSW 18:48:17 14° SSW 18:49:59 10° S
Meteor 1-28 Rocket 3.4 18:46:23 10° N 18:50:06 71° WNW 18:53:48 10° SSW
BREEZE-M DEB (TANK) 2.6 18:49:03 10° W 18:51:17 28° NNW 18:51:39 26° N
Cosmos 1356 Rocket 3.2 18:48:21 10° S 18:52:17 66° E 18:55:25 16° NNE
Cosmos 1900 4.2 18:51:04 10° NNW 18:56:03 74° ENE 19:01:03 10° SE
COSMO-SKYMED 1 3.7 18:52:35 10° N 18:56:43 44° WNW 19:00:50 10° SW
Cosmos 1707 Rocket 3.4 18:52:56 10° N 18:57:17 81° E 19:01:38 10° S
CZ-3A R/B 2.8 18:53:13 10° NW 18:57:55 59° NE 19:01:31 22° ESE
Aureole 1 Rocket 3.9 18:55:01 10° S 19:00:01 51° E 19:05:29 15° NNE
Spot 2 Rocket 3.7 18:58:42 10° SE 19:03:28 44° ENE 19:08:15 10° N
Resurs 01 Rocket 1.9 19:03:49 41° E 19:04:20 43° ENE 19:08:33 10° N
Lacrosse 5 rocket 2.4 19:03:03 10° WNW 19:06:41 42° SW 19:10:30 10° SSE
Cosmos 1184 Rocket 2.6 19:03:21 10° S 19:06:41 77° E 19:06:41 77° E
Cosmos 1666 Rocket 3.5 19:02:47 10° S 19:07:07 88° W 19:11:29 10° N
FENGYUN 3A 3.7 19:03:36 10° SSE 19:08:48 54° ENE 19:14:02 10° N
USA 229 DEB 3.8 19:02:22 10° SSW 19:09:01 56° ESE 19:12:13 31° NE
USA 229 3.8 19:02:29 10° SSW 19:09:07 56° ESE 19:12:17 31° NE
BREEZE M DEB (TANK) 2.6 19:08:11 10° WNW 19:09:43 36° WNW 19:09:43 36° WNW
METEOR-M 4.3 19:08:34 10° S 19:13:54 72° WSW 19:19:16 10° NNW
Cosmos 1538 Rocket 4.2 19:11:36 10° SSW 19:16:52 73° WNW 19:21:10 16° NNE
Iridium 4 Rocket 2.9 19:14:25 10° S 19:18:56 70° E 19:19:41 56° NE
ALOS 2.1 19:19:44 10° SSE 19:24:23 78° ENE 19:29:04 10° N
Cosmos 923 Rocket 3.9 19:19:33 10° S 19:24:39 59° ESE 19:24:48 58° E
ATLAS 5 CENTAUR R/B 4.3 19:21:55 10° N 19:23:24 13° NNE 19:23:24 13° NNE
FengYun 1-2 T 4.1 19:22:08 10° SSE 19:27:42 84° ENE 19:33:16 10° NNW
Cosmos 1626 3.6 19:25:24 10° SSW 19:28:52 36° WNW 19:31:36 15° NNW
Cosmos 1680 Rocket 4.1 19:26:54 10° S 19:30:32 40° SSE 19:30:32 40° SSE
SJ-6B 4.2 19:29:45 10° S 19:33:36 41° W 19:37:31 10° NNW
Cosmos 292 Rocket 4.4 19:31:33 10° S 19:34:49 43° S 19:34:49 43° S
Cosmos 1603 3.5 19:31:21 10° SSW 19:36:54 69° ESE 19:36:59 69° ESE
Cosmos 2242 Rocket 3.8 19:34:16 10° NNW 19:38:40 70° W 19:43:05 10° S
Cosmos 1455 3.7 19:38:13 10° NNW 19:41:42 35° W 19:45:12 10° SSW
Cosmos 2026 Rocket 4.0 19:42:31 10° S 19:47:46 61° SE 19:47:46 61° SE
Lacrosse 4 Rocket 3.4 19:47:10 10° NNW 19:48:34 21° NNW 19:48:34 21° NNW
USA 215 3.8 20:08:59 36° S 20:11:21 52° SW 20:17:44 10° NW
Cosmos 2369 Rocket 4.1 20:09:44 10° NNW 20:11:17 19° NNW 20:11:17 19° NNW
SL-16 R/B 4.3 20:12:29 10° WSW 20:16:51 23° NW 20:19:54 15° NNW
Resurs 01 Rocket 4.3 20:41:22 17° W 20:41:22 17° W 20:43:53 10° NW
